KN6KS Weather Reports


Display with metric or nautical units.
time (UTC)temp
F
wind
direction
speed
MPH
gust
MPH
rain 1hr
in
rain 24hr
in
rain mn
in
humidity
%
barometer
mb
20260901114423 60 263 1.0 1.0 0.00 0.00 0.00 32 1014.3
20260901113921 60 269 2.0 2.0 0.00 0.00 0.00 30 1014.1
20260901113421 60 246 0.0 0.0 0.00 0.00 0.00 31 1014.0
20260901112916 61 262 2.0 2.0 0.00 0.00 0.00 29 1014.1
20260901112411 60 255 2.0 2.0 0.00 0.00 0.00 30 1014.0
20260901111906 61 247 3.0 3.0 0.00 0.00 0.00 30 1013.9
20260901111404 60 259 2.0 2.0 0.00 0.00 0.00 30 1014.1
20260901110903 61 255 2.0 2.0 0.00 0.00 0.00 29 1014.0
20260901110359 60 280 1.0 1.0 0.00 0.00 0.00 28 1014.1
20260901105855 60 247 0.0 0.0 0.00 0.00 0.00 29 1014.0
20260901105350 60 248 0.0 0.0 0.00 0.00 0.00 30 1014.3
20260901104846 61 252 1.0 1.0 0.00 0.00 0.00 31 1014.2
20260901104341 61 238 1.0 2.0 0.00 0.00 0.00 29 1014.1
20260901103836 61 234 1.0 1.0 0.00 0.00 0.00 29 1014.1
20260901103331 61 253 1.0 1.0 0.00 0.00 0.00 29 1014.3
20260901102826 62 251 0.0 0.0 0.00 0.00 0.00 28 1014.2
20260901102325 61 246 1.0 1.0 0.00 0.00 0.00 29 1014.0
20260901101821 62 239 1.0 1.0 0.00 0.00 0.00 30 1014.2
20260901101321 63 330 2.0 2.0 0.00 0.00 0.00 25 1014.3
20260901100820 63 294 2.0 2.0 0.00 0.00 0.00 25 1014.2
20260901100316 62 267 2.0 2.0 0.00 0.00 0.00 28 1014.2
20260901095814 62 263 1.0 1.0 0.00 0.00 0.00 28 1014.2
20260901095312 62 249 1.0 1.0 0.00 0.00 0.00 30 1014.0
20260901094806 62 259 0.0 0.0 0.00 0.00 0.00 29 1014.3
20260901094301 62 277 1.0 1.0 0.00 0.00 0.00 27 1014.3
20260901093756 63 204 1.0 1.0 0.00 0.00 0.00 31 1014.5
20260901093255 63 238 0.0 0.0 0.00 0.00 0.00 28 1014.3
20260901092751 64 264 0.0 0.0 0.00 0.00 0.00 26 1014.4
20260901092247 64 196 2.0 2.0 0.00 0.00 0.00 28 1014.3
20260901091742 64 48 1.0 1.0 0.00 0.00 0.00 27 1014.3
20260901091237 63 48 2.0 2.0 0.00 0.00 0.00 28 1014.3
20260901090732 63 239 0.0 0.0 0.00 0.00 0.00 27 1014.3
20260901090227 63 187 0.0 1.0 0.00 0.00 0.00 28 1014.3
20260901085723 64 330 1.0 1.0 0.00 0.00 0.00 27 1014.4
20260901085218 66 217 1.0 1.0 0.00 0.00 0.00 26 1014.4
20260901084714 67 238 0.0 1.0 0.00 0.00 0.00 25 1014.4
20260901084211 67 249 3.0 3.0 0.00 0.00 0.00 23 1014.2
20260901083705 67 250 3.0 3.0 0.00 0.00 0.00 24 1014.2
20260901083204 67 245 4.0 5.0 0.00 0.00 0.00 24 1014.4
20260901082658 68 232 5.0 6.0 0.00 0.00 0.00 23 1014.3
20260901082154 68 253 6.0 7.0 0.00 0.00 0.00 22 1014.2
20260901081649 69 254 6.0 8.0 0.00 0.00 0.00 22 1014.3
20260901081148 69 262 6.0 7.0 0.00 0.00 0.00 21 1014.2
20260901080643 69 246 4.0 6.0 0.00 0.00 0.00 22 1014.6
20260901080142 71 240 6.0 6.0 0.00 0.00 0.00 21 1014.5
20260901075637 71 223 7.0 8.0 0.00 0.00 0.00 21 1014.5
20260901075137 70 240 6.0 7.0 0.00 0.00 0.00 21 1014.2
20260901074636 70 234 6.0 7.0 0.00 0.00 0.00 23 1014.4
20260901074132 70 227 5.0 6.0 0.00 0.00 0.00 23 1014.4
20260901073628 70 234 6.0 7.0 0.00 0.00 0.00 24 1014.3
20260901073124 70 247 5.0 6.0 0.00 0.00 0.00 24 1014.1
20260901072619 70 235 6.0 8.0 0.00 0.00 0.00 24 1014.4
20260901072113 70 229 5.0 6.0 0.00 0.00 0.00 24 1014.6
20260901071608 69 236 3.0 5.0 0.00 0.00 0.00 26 1014.4
20260901071106 68 202 2.0 2.0 0.00 0.00 0.00 28 1014.4
20260901070601 67 252 1.0 1.0 0.00 0.00 0.00 30 1014.3
20260901070051 68 290 2.0 2.0 0.00 0.00 0.00 29 1014.2
20260901065544 68 310 2.0 2.0 0.00 0.00 0.00 29 1014.4
20260901065039 68 287 4.0 5.0 0.00 0.00 0.00 29 1014.3
20260901064537 67 330 4.0 5.0 0.00 0.00 0.00 30 1014.3
20260901064033 67 297 1.0 1.0 0.00 0.00 0.00 31 1014.1
20260901063529 67 236 0.0 0.0 0.00 0.00 0.00 31 1014.2
20260901063025 68 337 3.0 3.0 0.00 0.00 0.00 30 1014.3
20260901062520 68 296 0.0 0.0 0.00 0.00 0.00 29 1014.2
20260901062017 68 330 6.0 7.0 0.00 0.00 0.00 29 1014.1
20260901061513 68 257 1.0 1.0 0.00 0.00 0.00 28 1014.0
20260901061007 69 52 1.0 1.0 0.00 0.00 0.00 28 1013.9
20260901060502 70 271 2.0 2.0 0.00 0.00 0.00 26 1014.1
20260901060001 69 4 6.0 7.0 0.00 0.00 0.00 27 1014.1
20260901055458 69 243 0.0 0.0 0.00 0.00 0.00 29 1014.0
20260901054954 69 277 2.0 2.0 0.00 0.00 0.00 29 1014.1
20260901054451 69 274 2.0 2.0 0.00 0.00 0.00 31 1014.3
20260901053947 69 279 4.0 5.0 0.00 0.00 0.00 32 1014.3
20260901053442 69 248 5.0 6.0 0.00 0.00 0.00 35 1014.1
20260901052938 69 284 3.0 3.0 0.00 0.00 0.00 36 1014.2
20260901052433 69 286 2.0 2.0 0.00 0.00 0.00 36 1014.0
20260901051932 69 278 3.0 3.0 0.00 0.00 0.00 38 1014.2
20260901051427 69 254 0.0 0.0 0.00 0.00 0.00 39 1014.2
20260901050921 69 23 7.0 8.0 0.00 0.00 0.00 39 1014.1
20260901050418 69 51 5.0 7.0 0.00 0.00 0.00 40 1013.9
20260901045917 73 39 4.0 5.0 0.00 0.00 0.00 30 1013.8
20260901045412 73 241 6.0 10.0 0.00 0.00 0.00 22 1013.6
20260901044907 73 264 14.0 18.0 0.00 0.00 0.00 22 1013.1
20260901044403 73 226 16.0 21.0 0.00 0.00 0.00 23 1013.0
20260901043858 73 217 16.0 20.0 0.00 0.00 0.00 25 1013.2
20260901043349 73 195 13.0 14.0 0.00 0.00 0.00 27 1013.1
20260901042848 72 224 15.0 21.0 0.00 0.00 0.00 29 1012.9
20260901042343 72 191 14.0 17.0 0.00 0.00 0.00 29 1013.1
20260901041838 72 246 13.0 16.0 0.00 0.00 0.00 31 1013.1
20260901041334 72 196 11.0 17.0 0.00 0.00 0.00 32 1013.1
20260901040828 72 232 13.0 17.0 0.00 0.00 0.00 33 1013.0
20260901040327 72 231 11.0 13.0 0.00 0.00 0.00 35 1013.1
20260901035826 72 223 12.0 13.0 0.00 0.00 0.00 36 1013.0
20260901035325 72 230 11.0 14.0 0.00 0.00 0.00 36 1013.0
20260901034824 71 238 11.0 11.0 0.00 0.00 0.00 39 1013.1
20260901034319 72 233 15.0 20.0 0.00 0.00 0.00 40 1013.0
20260901033814 72 231 17.0 21.0 0.00 0.00 0.00 40 1012.8
20260901033313 72 255 14.0 16.0 0.00 0.00 0.00 41 1012.6
20260901032812 72 257 15.0 16.0 0.00 0.00 0.00 42 1012.7
20260901032311 72 222 15.0 17.0 0.00 0.00 0.00 42 1012.5
20260901031807 73 247 16.0 20.0 0.00 0.00 0.00 41 1012.6
20260901031303 73 246 15.0 16.0 0.00 0.00 0.00 41 1012.6
20260901030802 73 220 15.0 17.0 0.00 0.00 0.00 41 1012.5
20260901030258 73 233 22.0 25.0 0.00 0.00 0.00 40 1012.4
20260901025756 74 253 18.0 22.0 0.00 0.00 0.00 39 1012.5
20260901025251 74 221 22.0 25.0 0.00 0.00 0.00 38 1012.5
20260901024747 74 214 18.0 22.0 0.00 0.00 0.00 37 1012.1
20260901024246 75 189 14.0 16.0 0.00 0.00 0.00 36 1012.1
20260901023743 75 244 19.0 21.0 0.00 0.00 0.00 36 1012.1
20260901023239 75 214 20.0 24.0 0.00 0.00 0.00 35 1012.1
20260901022734 76 216 11.0 14.0 0.00 0.00 0.00 35 1012.0
20260901022230 76 238 22.0 25.0 0.00 0.00 0.00 33 1012.0
20260901021725 76 243 23.0 25.0 0.00 0.00 0.00 32 1012.1
20260901021220 77 248 17.0 21.0 0.00 0.00 0.00 31 1011.9
20260901020715 77 249 23.0 26.0 0.00 0.00 0.00 30 1012.2
20260901020211 77 228 19.0 25.0 0.00 0.00 0.00 30 1012.1
20260901015705 78 227 15.0 18.0 0.00 0.00 0.00 30 1012.2
20260901015201 78 231 13.0 20.0 0.00 0.00 0.00 29 1012.4
20260901014655 78 223 18.0 21.0 0.00 0.00 0.00 30 1012.4
20260901014151 78 234 19.0 22.0 0.00 0.00 0.00 30 1012.1
20260901013647 78 238 19.0 24.0 0.00 0.00 0.00 30 1012.1
20260901013143 79 231 20.0 22.0 0.00 0.00 0.00 30 1011.8
20260901012642 80 246 15.0 18.0 0.00 0.00 0.00 28 1011.9
20260901012132 79 241 18.0 21.0 0.00 0.00 0.00 29 1011.9
20260901011628 80 201 17.0 21.0 0.00 0.00 0.00 29 1012.1
20260901011127 80 246 18.0 22.0 0.00 0.00 0.00 30 1011.9
20260901010621 80 245 10.0 11.0 0.00 0.00 0.00 29 1012.2
20260901010121 80 236 17.0 18.0 0.00 0.00 0.00 29 1012.1
20260901005620 80 279 12.0 14.0 0.00 0.00 0.00 29 1012.5
20260901005116 81 241 16.0 21.0 0.00 0.00 0.00 29 1012.5
20260901004615 81 226 11.0 13.0 0.00 0.00 0.00 29 1012.5
20260901004110 81 259 15.0 16.0 0.00 0.00 0.00 30 1012.6
20260901003605 81 227 13.0 15.0 0.00 0.00 0.00 32 1012.5
20260901003103 82 258 6.0 7.0 0.00 0.00 0.00 31 1012.4
20260901002558 82 272 13.0 15.0 0.00 0.00 0.00 30 1012.6
20260901002053 82 255 13.0 17.0 0.00 0.00 0.00 30 1012.5
20260901001554 82 274 14.0 16.0 0.00 0.00 0.00 30 1012.5
20260901001049 82 223 12.0 14.0 0.00 0.00 0.00 30 1012.4
20260901000544 83 223 7.0 8.0 0.00 0.00 0.00 30 1012.6
20260901000039 83 245 9.0 11.0 0.00 0.00 0.00 28 1012.6
20260831235533 83 244 10.0 11.0 0.00 0.00 0.00 26 1012.4
20260831235029 83 251 11.0 15.0 0.00 0.00 0.00 28 1012.6
20260831234522 83 184 13.0 17.0 0.00 0.00 0.00 26 1012.5
20260831234019 83 192 12.0 14.0 0.00 0.00 0.00 24 1012.6
20260831233513 84 186 13.0 16.0 0.00 0.00 0.00 25 1012.5
20260831233009 84 252 9.0 11.0 0.00 0.00 0.00 24 1012.7
20260831232504 84 233 12.0 17.0 0.00 0.00 0.00 24 1012.5
20260831232000 84 207 17.0 18.0 0.00 0.00 0.00 25 1012.6
20260831231456 84 223 7.0 9.0 0.00 0.00 0.00 25 1012.6
20260831230952 84 263 12.0 15.0 0.00 0.00 0.00 26 1012.6
20260831230447 84 239 13.0 18.0 0.00 0.00 0.00 26 1012.7
20260831225941 84 228 13.0 16.0 0.00 0.00 0.00 26 1012.6
20260831225437 84 225 7.0 10.0 0.00 0.00 0.00 27 1012.6
20260831224932 85 242 8.0 11.0 0.00 0.00 0.00 28 1012.4
20260831224431 84 246 6.0 9.0 0.00 0.00 0.00 28 1012.6
20260831223926 84 205 13.0 16.0 0.00 0.00 0.00 27 1012.9
20260831223422 85 223 7.0 11.0 0.00 0.00 0.00 26 1012.6
20260831222919 84 228 16.0 18.0 0.00 0.00 0.00 28 1012.8
20260831222414 84 180 12.0 15.0 0.00 0.00 0.00 27 1012.9
20260831221909 84 242 11.0 15.0 0.00 0.00 0.00 26 1012.7
20260831221404 84 227 10.0 11.0 0.00 0.00 0.00 26 1013.2
20260831220900 84 246 13.0 15.0 0.00 0.00 0.00 25 1013.1
20260831220355 84 232 14.0 16.0 0.00 0.00 0.00 25 1013.0
20260831215850 84 161 16.0 18.0 0.00 0.00 0.00 24 1013.0
20260831215346 84 243 15.0 20.0 0.00 0.00 0.00 21 1013.2
20260831214842 84 251 14.0 15.0 0.00 0.00 0.00 25 1013.3
20260831214340 84 202 14.0 16.0 0.00 0.00 0.00 24 1013.2
20260831213839 84 257 10.0 16.0 0.00 0.00 0.00 24 1013.2
20260831213336 84 199 15.0 18.0 0.00 0.00 0.00 23 1013.4
20260831212831 85 190 9.0 15.0 0.00 0.00 0.00 25 1013.2
20260831212328 85 220 13.0 16.0 0.00 0.00 0.00 23 1013.1
20260831211827 84 263 9.0 15.0 0.00 0.00 0.00 26 1013.5
20260831211322 84 196 16.0 18.0 0.00 0.00 0.00 23 1013.3
20260831210821 84 171 11.0 13.0 0.00 0.00 0.00 25 1013.3
20260831210317 85 191 10.0 13.0 0.00 0.00 0.00 27 1013.3
20260831205812 85 230 4.0 5.0 0.00 0.00 0.00 25 1013.3
20260831205308 85 208 7.0 9.0 0.00 0.00 0.00 25 1013.5
20260831204808 84 259 17.0 18.0 0.00 0.00 0.00 26 1013.6
20260831204307 83 241 11.0 14.0 0.00 0.00 0.00 27 1013.9
20260831203806 84 261 11.0 17.0 0.00 0.00 0.00 26 1013.6
20260831203301 84 253 11.0 17.0 0.00 0.00 0.00 24 1013.5
20260831202759 83 243 10.0 14.0 0.00 0.00 0.00 25 1013.9
20260831202255 84 250 17.0 20.0 0.00 0.00 0.00 23 1013.6
20260831201754 84 246 5.0 6.0 0.00 0.00 0.00 25 1013.5
20260831201253 84 251 12.0 15.0 0.00 0.00 0.00 26 1013.6
20260831200749 84 256 13.0 15.0 0.00 0.00 0.00 26 1013.8
20260831200244 84 246 10.0 15.0 0.00 0.00 0.00 26 1013.6
20260831195739 84 250 11.0 13.0 0.00 0.00 0.00 27 1013.9
20260831195236 84 310 8.0 11.0 0.00 0.00 0.00 26 1013.6
20260831194730 84 258 9.0 10.0 0.00 0.00 0.00 27 1013.9
20260831194226 84 247 9.0 10.0 0.00 0.00 0.00 27 1013.8
20260831193719 83 265 6.0 9.0 0.00 0.00 0.00 26 1014.0
20260831193215 83 272 14.0 16.0 0.00 0.00 0.00 25 1013.9
20260831192710 84 219 9.0 10.0 0.00 0.00 0.00 24 1013.6
20260831192205 83 225 7.0 8.0 0.00 0.00 0.00 24 1013.9
20260831191701 82 288 7.0 8.0 0.00 0.00 0.00 24 1014.0
20260831191157 83 238 12.0 14.0 0.00 0.00 0.00 24 1014.0
20260831190651 83 229 9.0 13.0 0.00 0.00 0.00 24 1013.9
20260831190150 83 280 9.0 14.0 0.00 0.00 0.00 24 1013.8
20260831185641 83 240 9.0 11.0 0.00 0.00 0.00 23 1014.1
20260831185136 83 241 12.0 13.0 0.00 0.00 0.00 23 1014.1
20260831184635 83 247 12.0 13.0 0.00 0.00 0.00 23 1014.0
20260831184132 83 237 11.0 14.0 0.00 0.00 0.00 23 1014.0
20260831183631 83 205 8.0 10.0 0.00 0.00 0.00 24 1014.2
20260831183130 82 251 11.0 11.0 0.00 0.00 0.00 25 1013.8
20260831182629 83 210 11.0 14.0 0.00 0.00 0.00 25 1014.1
20260831182125 82 214 12.0 15.0 0.00 0.00 0.00 25 1014.0
20260831181620 82 233 11.0 15.0 0.00 0.00 0.00 26 1013.8
20260831181120 82 216 12.0 15.0 0.00 0.00 0.00 25 1013.6
20260831180615 82 170 14.0 16.0 0.00 0.00 0.00 22 1013.5
20260831180110 82 209 11.0 14.0 0.00 0.00 0.00 23 1013.6
20260831175605 82 240 18.0 20.0 0.00 0.00 0.00 22 1013.5
20260831175102 82 243 17.0 23.0 0.00 0.00 0.00 22 1013.6
20260831174557 81 228 7.0 9.0 0.00 0.00 0.00 22 1013.6
20260831174056 81 251 17.0 21.0 0.00 0.00 0.00 23 1013.5
20260831173554 81 246 17.0 23.0 0.00 0.00 0.00 22 1013.8
20260831173051 81 195 12.0 16.0 0.00 0.00 0.00 22 1013.5
20260831172546 81 264 14.0 16.0 0.00 0.00 0.00 20 1013.6
20260831172046 81 283 6.0 7.0 0.00 0.00 0.00 22 1013.8
20260831171541 80 238 12.0 16.0 0.00 0.00 0.00 22 1013.6
20260831171038 81 232 10.0 15.0 0.00 0.00 0.00 23 1013.5
20260831170534 80 190 13.0 17.0 0.00 0.00 0.00 22 1013.5
20260831170032 80 221 10.0 17.0 0.00 0.00 0.00 22 1013.5
20260831165531 80 259 6.0 8.0 0.00 0.00 0.00 21 1013.6
20260831165028 80 253 14.0 18.0 0.00 0.00 0.00 21 1013.5
20260831164524 80 234 9.0 10.0 0.00 0.00 0.00 23 1013.8
20260831164019 80 321 3.0 5.0 0.00 0.00 0.00 23 1013.3
20260831163514 79 242 6.0 13.0 0.00 0.00 0.00 24 1013.3
20260831163010 80 224 1.0 2.0 0.00 0.00 0.00 24 1013.6
20260831162509 79 274 4.0 6.0 0.00 0.00 0.00 25 1013.2
20260831162007 79 210 4.0 6.0 0.00 0.00 0.00 26 1013.6
20260831161504 78 18 7.0 7.0 0.00 0.00 0.00 24 1013.4
20260831160959 78 241 9.0 10.0 0.00 0.00 0.00 25 1013.4
20260831160458 78 282 4.0 6.0 0.00 0.00 0.00 24 1013.3
20260831155953 78 252 4.0 5.0 0.00 0.00 0.00 28 1013.6
20260831155448 77 47 4.0 5.0 0.00 0.00 0.00 30 1013.4
20260831154944 78 332 2.0 3.0 0.00 0.00 0.00 28 1013.5
20260831154440 77 152 4.0 5.0 0.00 0.00 0.00 26 1013.4
20260831153938 78 208 1.0 1.0 0.00 0.00 0.00 29 1013.5
20260831153434 77 85 3.0 3.0 0.00 0.00 0.00 30 1013.5
20260831152931 77 126 3.0 5.0 0.00 0.00 0.00 34 1013.5
20260831152426 76 150 3.0 5.0 0.00 0.00 0.00 35 1013.3
20260831151921 76 49 6.0 7.0 0.00 0.00 0.00 38 1013.3
20260831151420 76 219 1.0 1.0 0.00 0.00 0.00 31 1013.4
20260831150916 76 260 1.0 2.0 0.00 0.00 0.00 32 1013.2
20260831150411 75 222 5.0 6.0 0.00 0.00 0.00 33 1013.4
20260831145910 75 220 6.0 8.0 0.00 0.00 0.00 35 1013.3
20260831145406 75 265 10.0 11.0 0.00 0.00 0.00 35 1013.4
20260831144902 74 228 5.0 7.0 0.00 0.00 0.00 36 1013.1
20260831144358 74 219 9.0 14.0 0.00 0.00 0.00 38 1013.0
20260831143853 74 217 12.0 14.0 0.00 0.00 0.00 38 1013.0
20260831143348 74 233 12.0 14.0 0.00 0.00 0.00 39 1013.1
20260831142843 73 246 9.0 10.0 0.00 0.00 0.00 40 1012.7
20260831142338 73 218 9.0 10.0 0.00 0.00 0.00 41 1012.8
20260831141838 73 231 10.0 15.0 0.00 0.00 0.00 42 1012.7
20260831141333 73 223 8.0 10.0 0.00 0.00 0.00 42 1012.7
20260831140828 72 201 5.0 7.0 0.00 0.00 0.00 44 1012.7
20260831140322 71 6 3.0 3.0 0.00 0.00 0.00 49 1012.6
20260831135820 71 246 1.0 2.0 0.00 0.00 0.00 48 1012.9
20260831135316 71 94 3.0 3.0 0.00 0.00 0.00 48 1012.7
20260831134811 72 240 1.0 2.0 0.00 0.00 0.00 45 1012.6
20260831134307 72 199 5.0 6.0 0.00 0.00 0.00 46 1012.4
20260831133806 72 232 7.0 10.0 0.00 0.00 0.00 46 1012.2
20260831133301 72 213 7.0 8.0 0.00 0.00 0.00 46 1012.1
20260831132756 72 194 5.0 8.0 0.00 0.00 0.00 46 1012.2
20260831132251 72 242 13.0 17.0 0.00 0.00 0.00 46 1012.0
20260831131750 72 208 8.0 11.0 0.00 0.00 0.00 46 1012.1
20260831131247 72 205 9.0 11.0 0.00 0.00 0.00 46 1011.8
20260831130742 72 259 10.0 13.0 0.00 0.00 0.00 45 1011.9
20260831130237 72 215 10.0 11.0 0.00 0.00 0.00 46 1011.9
20260831125736 72 226 14.0 17.0 0.00 0.00 0.00 46 1011.8
20260831125232 72 236 14.0 17.0 0.00 0.00 0.00 46 1011.6
20260831124726 72 217 14.0 17.0 0.00 0.00 0.00 46 1011.9
20260831124223 72 222 12.0 13.0 0.00 0.00 0.00 46 1011.7
20260831123722 72 244 15.0 17.0 0.00 0.00 0.00 45 1011.9
20260831123222 72 254 17.0 20.0 0.00 0.00 0.00 45 1011.8
20260831122716 72 236 16.0 22.0 0.00 0.00 0.00 44 1011.9
20260831122212 72 245 13.0 16.0 0.00 0.00 0.00 44 1011.8
20260831121711 72 250 8.0 11.0 0.00 0.00 0.00 45 1012.2
20260831121208 72 249 9.0 10.0 0.00 0.00 0.00 44 1011.9
20260831120703 72 247 9.0 10.0 0.00 0.00 0.00 43 1012.1
20260831120157 72 266 7.0 9.0 0.00 0.00 0.00 42 1012.2
20260831115653 71 232 6.0 8.0 0.00 0.00 0.00 42 1012.1
20260831115149 70 257 0.0 0.0 0.00 0.00 0.00 47 1012.4
20260831114648 70 305 2.0 3.0 0.00 0.00 0.00 50 1012.2